FW5863 Weather Reports


Display with metric or nautical units.
time (UTC)temp
F
wind
direction
speed
MPH
gust
MPH
rain 1hr
in
rain 24hr
in
rain mn
in
humidity
%
barometer
mb
20260905222459 75 11 3.0 5.0 0.00 0.00 0.00 66 1011.7
20260905221959 75 340 3.0 6.0 0.00 0.00 0.00 65 1011.6
20260905221500 75 327 4.0 6.0 0.00 0.00 0.00 64 1011.6
20260905220959 75 305 3.0 6.0 0.00 0.00 0.00 64 1011.7
20260905220459 75 354 4.0 10.0 0.00 0.00 0.00 65 1011.6
20260905215959 75 340 4.0 10.0 0.00 0.00 0.00 64 1011.6
20260905215459 75 360 4.0 8.0 0.00 0.00 0.00 64 1011.5
20260905214959 75 7 4.0 9.0 0.00 0.00 0.00 62 1011.5
20260905214500 76 345 3.0 9.0 0.00 0.00 0.00 62 1011.5
20260905213959 76 23 3.0 7.0 0.00 0.00 0.00 62 1011.4
20260905213459 77 300 3.0 6.0 0.00 0.00 0.00 63 1011.4
20260905212959 76 314 3.0 6.0 0.00 0.00 0.00 63 1011.4
20260905212459 75 323 4.0 8.0 0.00 0.00 0.00 64 1011.4
20260905211959 75 322 4.0 9.0 0.00 0.00 0.00 63 1011.4
20260905211500 75 355 3.0 9.0 0.00 0.00 0.00 63 1011.4
20260905210959 75 322 2.0 5.0 0.00 0.00 0.00 65 1011.4
20260905210459 75 334 3.0 7.0 0.00 0.00 0.00 64 1011.4
20260905210000 75 340 4.0 7.0 0.00 0.00 0.00 63 1011.3
20260905205459 75 336 4.0 9.0 0.00 0.00 0.00 62 1011.3
20260905204959 76 350 6.0 11.0 0.00 0.00 0.00 61 1011.5
20260905204459 76 329 5.0 11.0 0.00 0.00 0.00 58 1011.5
20260905203959 77 355 3.0 11.0 0.00 0.00 0.00 58 1011.4
20260905203459 77 356 3.0 9.0 0.00 0.00 0.00 63 1011.3
20260905202959 77 21 5.0 9.0 0.00 0.00 0.00 60 1011.4
20260905201959 77 321 4.0 11.0 0.00 0.00 0.00 61 1011.4
20260905200959 76 7 3.0 7.0 0.00 0.00 0.00 66 1011.4
20260905200459 75 311 3.0 8.0 0.00 0.00 0.00 67 1011.4
20260905195459 75 327 4.0 8.0 0.00 0.00 0.00 61 1011.5
20260905194959 76 341 5.0 9.0 0.00 0.00 0.00 62 1011.5
20260905193959 77 13 6.0 12.0 0.00 0.00 0.00 60 1011.5
20260905193458 77 314 5.0 12.0 0.00 0.00 0.00 59 1011.6
20260905192959 77 24 5.0 10.0 0.00 0.00 0.00 61 1011.4
20260905191959 78 27 5.0 13.0 0.00 0.00 0.00 59 1011.4
20260905191500 78 21 4.0 13.0 0.00 0.00 0.00 60 1011.4
20260905190959 78 55 4.0 10.0 0.00 0.00 0.00 57 1011.5
20260905185959 78 332 5.0 10.0 0.00 0.00 0.00 62 1011.6
20260905185000 78 314 4.0 11.0 0.00 0.00 0.00 61 1011.6
20260905184459 78 286 3.0 8.0 0.00 0.00 0.00 62 1011.7
20260905183959 77 324 4.0 8.0 0.00 0.00 0.00 65 1011.8
20260905183458 77 220 5.0 10.0 0.00 0.00 0.00 65 1011.8
20260905183000 76 302 6.0 11.0 0.00 0.00 0.00 64 1011.9
20260905182500 76 36 5.0 11.0 0.00 0.00 0.00 63 1011.9
20260905181959 76 298 4.0 10.0 0.00 0.00 0.00 64 1011.9
20260905181500 75 303 5.0 10.0 0.00 0.00 0.00 65 1011.9
20260905180959 74 349 5.0 11.0 0.00 0.00 0.00 67 1012.0
20260905175959 76 9 6.0 11.0 0.00 0.00 0.00 63 1012.2
20260905175459 76 359 7.0 12.0 0.00 0.00 0.00 63 1012.2
20260905174958 76 317 7.0 12.0 0.00 0.00 0.00 65 1012.1
20260905174459 76 344 6.0 13.0 0.00 0.00 0.00 60 1012.1
20260905173958 77 65 5.0 13.0 0.00 0.00 0.00 61 1012.1
20260905173459 76 309 5.0 10.0 0.00 0.00 0.00 67 1012.0
20260905172459 76 317 6.0 13.0 0.00 0.00 0.00 64 1012.1
20260905171959 75 327 6.0 11.0 0.00 0.00 0.00 64 1012.1
20260905171501 75 317 6.0 12.0 0.00 0.00 0.00 62 1012.1
20260905170959 76 315 5.0 12.0 0.00 0.00 0.00 65 1012.1
20260905170459 76 355 4.0 12.0 0.00 0.00 0.00 64 1012.0
20260905165459 76 331 5.0 10.0 0.00 0.00 0.00 65 1012.2
20260905164959 76 352 4.0 10.0 0.00 0.00 0.00 67 1012.3
20260905164500 76 45 5.0 12.0 0.00 0.00 0.00 71 1012.3
20260905163959 75 17 6.0 12.0 0.00 0.00 0.00 67 1012.5
20260905163459 75 21 6.0 11.0 0.00 0.00 0.00 65 1012.4
20260905162959 75 13 6.0 11.0 0.00 0.00 0.00 64 1012.5
20260905162000 75 331 6.0 12.0 0.00 0.00 0.00 69 1012.7
20260905160959 75 327 6.0 13.0 0.00 0.00 0.00 66 1012.7
20260905160459 75 360 6.0 15.0 0.00 0.00 0.00 68 1012.7
20260905155959 75 321 6.0 15.0 0.00 0.00 0.00 65 1012.7
20260905155459 74 312 6.0 11.0 0.00 0.00 0.00 69 1012.8
20260905154500 74 354 6.0 12.0 0.00 0.00 0.00 68 1012.8
20260905153958 74 359 6.0 12.0 0.00 0.00 0.00 67 1012.8
20260905153459 74 291 5.0 9.0 0.00 0.00 0.00 68 1012.8
20260905153000 74 342 4.0 9.0 0.00 0.00 0.00 69 1012.8
20260905152501 73 32 5.0 11.0 0.00 0.00 0.00 70 1012.7
20260905151958 74 347 5.0 11.0 0.00 0.00 0.00 69 1012.8
20260905151501 74 319 5.0 10.0 0.00 0.00 0.00 71 1012.6
20260905150959 74 3 5.0 10.0 0.00 0.00 0.00 70 1012.6
20260905150459 73 348 4.0 10.0 0.00 0.00 0.00 72 1012.6
20260905150000 73 7 6.0 12.0 0.00 0.00 0.00 72 1012.6
20260905145459 72 7 6.0 12.0 0.00 0.00 0.00 74 1012.6
20260905144959 73 45 6.0 12.0 0.00 0.00 0.00 71 1012.6
20260905144459 73 1 5.0 12.0 0.00 0.00 0.00 72 1012.5
20260905143959 72 342 5.0 12.0 0.00 0.00 0.00 72 1012.5
20260905143459 72 349 5.0 12.0 0.00 0.00 0.00 72 1012.5
20260905142959 72 339 5.0 11.0 0.00 0.00 0.00 75 1012.6
20260905142459 72 28 6.0 11.0 0.00 0.00 0.00 74 1012.6
20260905141500 71 28 6.0 11.0 0.00 0.00 0.00 74 1012.7
20260905140959 72 8 4.0 8.0 0.00 0.00 0.00 73 1012.7
20260905140458 72 19 5.0 10.0 0.00 0.00 0.00 76 1012.7
20260905140000 72 331 5.0 10.0 0.00 0.00 0.00 73 1012.7
20260905135459 72 317 3.0 8.0 0.00 0.00 0.00 76 1012.8
20260905134958 72 334 3.0 7.0 0.00 0.00 0.00 75 1012.7
20260905133959 72 337 2.0 7.0 0.00 0.00 0.00 74 1012.7
20260905133459 71 336 3.0 8.0 0.00 0.00 0.00 77 1012.8
20260905132959 71 359 4.0 8.0 0.00 0.00 0.00 75 1012.7
20260905132459 71 356 4.0 8.0 0.00 0.00 0.00 76 1012.7
20260905131959 71 12 4.0 6.0 0.00 0.00 0.00 77 1012.6
20260905131500 71 359 4.0 9.0 0.00 0.00 0.00 77 1012.5
20260905130959 71 334 3.0 9.0 0.00 0.00 0.00 76 1012.4
20260905130459 70 348 2.0 7.0 0.00 0.00 0.00 78 1012.5
20260905125959 70 31 3.0 8.0 0.00 0.00 0.00 80 1012.4
20260905125459 70 32 5.0 10.0 0.00 0.00 0.00 79 1012.4
20260905124959 70 341 6.0 10.0 0.00 0.00 0.00 79 1012.5
20260905124459 70 358 5.0 11.0 0.00 0.00 0.00 79 1012.6
20260905123959 70 10 4.0 11.0 0.00 0.00 0.00 79 1012.6
20260905123000 69 32 4.0 6.0 0.00 0.00 0.00 80 1012.6
20260905121959 69 33 2.0 6.0 0.00 0.00 0.00 81 1012.7
20260905121459 69 9 2.0 4.0 0.00 0.00 0.00 83 1012.7
20260905120958 69 8 2.0 4.0 0.00 0.00 0.00 82 1012.6
20260905115959 0 0.0 0.0 0.00 0.00 0.00 1012.6
20260905115458 0 0.0 0.0 0.00 0.00 0.00 1012.5
20260905114459 0 0.0 0.0 0.00 0.00 0.00 1012.6
20260905113458 0 0.0 0.0 0.00 0.00 0.00 1012.6
20260905112959 0 0.0 0.0 0.00 0.00 0.00 1012.6
20260905112458 0 0.0 0.0 0.00 0.00 0.00 1012.5
20260905111958 0 0.0 0.0 0.00 0.00 0.00 1012.5
20260905110958 0 0.0 0.0 0.00 0.00 0.00 1012.3
20260905110459 0 0.0 0.0 0.00 0.00 0.00 1012.2
20260905105959 0 0.0 0.0 0.00 0.00 0.00 1012.1
20260905105459 0 0.0 0.0 0.00 0.00 0.00 1012.2
20260905104958 0 0.0 0.0 0.00 0.00 0.00 1012.1
20260905104459 0 0.0 0.0 0.00 0.00 0.00 1012.0
20260905103958 0 0.0 0.0 0.00 0.00 0.00 1011.8
20260905103500 0 0.0 0.0 0.00 0.00 0.00 1011.7
20260905102459 0 0.0 0.0 0.00 0.00 0.00 1011.7
20260905101958 0 0.0 0.0 0.00 0.00 0.00 1011.7
20260905101459 0 0.0 0.0 0.00 0.00 0.00 1011.6
20260905100958 0 0.0 0.0 0.00 0.00 0.00 1011.6
20260905100458 68 50 0.0 0.0 0.00 0.00 0.00 81 1011.7
20260905095959 68 50 0.0 0.0 0.00 0.00 0.00 81 1011.6
20260905094959 68 50 0.0 0.0 0.00 0.00 0.00 81 1011.6
20260905094459 68 50 1.0 2.0 0.00 0.00 0.00 81 1011.5
20260905093959 69 50 1.0 3.0 0.00 0.00 0.00 80 1011.5
20260905092458 69 50 2.0 5.0 0.00 0.00 0.00 79 1011.4
20260905091959 68 50 2.0 5.0 0.00 0.00 0.00 79 1011.3
20260905091500 68 50 2.0 4.0 0.00 0.00 0.00 81 1011.3
20260905090458 68 50 3.0 6.0 0.00 0.00 0.00 80 1011.3
20260905090000 68 50 3.0 6.0 0.00 0.00 0.00 80 1011.2
20260905085458 68 50 2.0 5.0 0.00 0.00 0.00 81 1011.4
20260905084958 69 50 2.0 4.0 0.00 0.00 0.00 81 1011.4
20260905084500 69 50 3.0 6.0 0.00 0.00 0.00 80 1011.3
20260905083958 69 50 3.0 6.0 0.00 0.00 0.00 79 1011.3
20260905082959 69 50 3.0 6.0 0.00 0.00 0.00 80 1011.4
20260905082458 69 50 3.0 6.0 0.00 0.00 0.00 80 1011.3
20260905081958 69 50 3.0 6.0 0.00 0.00 0.00 80 1011.2
20260905081459 69 50 3.0 11.0 0.00 0.00 0.00 80 1011.3
20260905080959 69 50 3.0 11.0 0.00 0.00 0.00 80 1011.4
20260905080459 69 50 2.0 5.0 0.00 0.00 0.00 81 1011.5
20260905075959 69 50 2.0 5.0 0.00 0.00 0.00 81 1011.5
20260905074959 69 50 2.0 6.0 0.00 0.00 0.00 82 1011.4
20260905074459 69 50 2.0 5.0 0.00 0.00 0.00 82 1011.5
20260905072959 69 50 3.0 5.0 0.00 0.00 0.00 82 1011.4
20260905072458 69 50 2.0 6.0 0.00 0.00 0.00 82 1011.5
20260905071959 69 50 2.0 6.0 0.00 0.00 0.00 83 1011.5
20260905071459 69 50 2.0 5.0 0.00 0.00 0.00 83 1011.5
20260905070958 69 50 2.0 5.0 0.00 0.00 0.00 83 1011.6
20260905070459 69 50 2.0 8.0 0.00 0.00 0.00 83 1011.6
20260905065458 70 50 2.0 6.0 0.00 0.00 0.00 84 1011.6
20260905064958 70 50 1.0 4.0 0.00 0.00 0.00 84 1011.6
20260905064459 70 50 1.0 3.0 0.00 0.00 0.00 83 1011.7
20260905063959 70 50 1.0 3.0 0.00 0.00 0.00 83 1011.8
20260905063458 70 50 0.0 3.0 0.00 0.00 0.00 84 1011.8
20260905062959 70 50 1.0 2.0 0.00 0.00 0.00 83 1011.7
20260905062458 70 50 1.0 3.0 0.00 0.00 0.00 83 1011.7
20260905061958 70 50 2.0 5.0 0.00 0.00 0.00 83 1011.7
20260905061459 70 50 2.0 5.0 0.00 0.00 0.00 84 1011.8
20260905060959 70 50 1.0 4.0 0.00 0.00 0.00 85 1011.9
20260905060458 69 50 2.0 4.0 0.00 0.00 0.00 85 1011.8
20260905055459 69 50 0.0 4.0 0.00 0.00 0.00 87 1011.9
20260905054459 69 50 0.0 0.0 0.00 0.00 0.00 88 1012.0
20260905053958 69 50 0.0 0.0 0.00 0.00 0.00 89 1012.1
20260905053458 69 50 0.0 0.0 0.00 0.00 0.00 90 1012.1
20260905052959 69 50 0.0 0.0 0.00 0.00 0.00 90 1012.2
20260905052458 69 50 0.0 0.0 0.00 0.00 0.00 90 1012.1
20260905051958 69 50 0.0 0.0 0.00 0.00 0.00 89 1012.2
20260905051459 69 50 0.0 0.0 0.00 0.00 0.00 89 1012.2
20260905050958 69 50 0.0 0.0 0.00 0.00 0.00 89 1012.2
20260905050458 69 50 0.0 0.0 0.00 0.00 0.00 89 1012.3
20260905045459 69 50 0.0 0.0 0.00 0.16 0.00 90 1012.4
20260905044958 69 50 0.0 0.0 0.00 0.16 0.00 90 1012.4
20260905044502 69 50 0.0 2.0 0.00 0.16 0.00 90 1012.4
20260905043958 69 50 0.0 2.0 0.00 0.16 0.00 92 1012.5
20260905043458 69 50 0.0 2.0 0.00 0.16 0.00 92 1012.5
20260905042959 68 50 0.0 0.0 0.00 0.16 0.00 93 1012.4
20260905042458 68 50 0.0 0.0 0.00 0.16 0.00 94 1012.4
20260905041958 69 50 0.0 0.0 0.00 0.16 0.00 94 1012.4
20260905040958 69 50 0.0 0.0 0.00 0.16 0.00 95 1012.4
20260905040459 69 50 0.0 0.0 0.00 0.16 0.00 95 1012.4
20260905035959 69 50 0.0 0.0 0.00 0.16 0.16 95 1012.4
20260905035458 69 50 0.0 0.0 0.00 0.16 0.16 95 1012.2
20260905034958 69 50 0.0 0.0 0.00 0.16 0.16 95 1012.2
20260905034459 70 50 0.0 0.0 0.00 0.16 0.16 96 1012.3
20260905033458 70 50 0.0 0.0 0.00 0.16 0.16 95 1012.4
20260905032959 70 50 0.0 0.0 0.00 0.16 0.16 95 1012.5
20260905032000 70 50 0.0 0.0 0.00 0.16 0.16 95 1012.4
20260905031459 70 50 0.0 0.0 0.00 0.16 0.16 95 1012.4
20260905030958 70 50 0.0 0.0 0.00 0.16 0.16 95 1012.3
20260905030458 70 50 0.0 0.0 0.00 0.16 0.16 95 1012.3
20260905025959 70 50 0.0 0.0 0.00 0.16 0.16 95 1012.3
20260905025458 70 50 0.0 0.0 0.00 0.16 0.16 95 1012.4
20260905024958 70 50 0.0 0.0 0.00 0.16 0.16 95 1012.4
20260905024459 70 50 0.0 0.0 0.00 0.16 0.16 95 1012.4
20260905023459 70 50 0.0 0.0 0.00 0.16 0.16 95 1012.3
20260905022959 70 50 0.0 0.0 0.00 0.16 0.16 95 1012.3
20260905020958 70 50 0.0 0.0 0.00 0.16 0.16 95 1012.3
20260905015458 71 50 0.0 0.0 0.00 0.16 0.16 94 1012.2
20260905014958 71 50 0.0 0.0 0.00 0.16 0.16 94 1012.2
20260905014459 71 50 0.0 0.0 0.00 0.16 0.16 94 1012.3
20260905013958 71 50 0.0 0.0 0.00 0.16 0.16 94 1012.2
20260905013458 71 50 0.0 0.0 0.00 0.16 0.16 94 1012.3
20260905011958 71 50 0.0 0.0 0.00 0.16 0.16 93 1012.3
20260905011459 71 50 0.0 0.0 0.00 0.16 0.16 93 1012.2
20260905010958 71 50 0.0 0.0 0.00 0.16 0.16 93 1012.3
20260905010458 71 50 0.0 0.0 0.00 0.16 0.16 93 1012.3
20260905005959 71 50 0.0 1.0 0.00 0.16 0.16 92 1012.4
20260905005457 72 50 0.0 1.0 0.00 0.16 0.16 92 1012.3
20260905004958 72 50 0.0 0.0 0.00 0.16 0.16 92 1012.2
20260905004459 72 50 0.0 1.0 0.00 0.16 0.16 91 1012.2
20260905003958 72 50 0.0 1.0 0.00 0.16 0.16 91 1012.2
20260905003458 72 50 0.0 0.0 0.00 0.16 0.16 91 1012.2
20260905002959 72 50 0.0 0.0 0.00 0.16 0.16 91 1012.2
20260905002458 72 50 0.0 0.0 0.00 0.16 0.16 90 1012.1
20260905001958 72 50 0.0 1.0 0.00 0.16 0.16 90 1012.1
20260905000958 72 50 0.0 1.0 0.00 0.16 0.16 90 1011.9
20260905000458 72 50 0.0 1.0 0.00 0.16 0.16 90 1011.9
20260904235959 73 50 0.0 1.0 0.00 0.16 0.16 90 1011.8
20260904235458 73 50 0.0 0.0 0.00 0.16 0.16 89 1011.7
20260904234958 73 50 0.0 0.0 0.00 0.16 0.16 89 1011.7
20260904234459 73 50 0.0 0.0 0.00 0.16 0.16 89 1011.8
20260904233958 73 50 0.0 0.0 0.00 0.16 0.16 88 1011.8
20260904233458 74 50 0.0 0.0 0.00 0.16 0.16 88 1011.8
20260904232458 75 50 0.0 0.0 0.00 0.16 0.16 87 1011.7
20260904231459 76 50 0.0 0.0 0.00 0.16 0.16 85 1011.7
20260904230958 76 308 0.0 0.0 0.00 0.16 0.16 84 1011.6
20260904225959 77 308 0.0 0.0 0.00 0.16 0.16 83 1011.7
20260904225458 78 308 0.0 0.0 0.00 0.16 0.16 80 1011.6
20260904224459 78 308 0.0 0.0 0.00 0.16 0.16 79 1011.6
20260904223958 78 308 0.0 0.0 0.00 0.16 0.16 79 1011.7
20260904223458 78 308 0.0 0.0 0.00 0.16 0.16 79 1011.9
20260904222959 78 308 0.0 0.0 0.00 0.16 0.16 80 1011.9